Regional Weather Roundup
Issued by NWS

Home | Current Version | Previous Version | Graphics & Text | Print | Product List | Glossary On
Versions: 1 2 3 4 5 6 7 8 9 10 11 12 13 14 15 16 17 18 19 20 21 22 23 24 25 26 27 28 29 30 31 32 33 34 35 36 37 38 39 40 41 42 43 44 45 46 47 48 49 50
892
ASUS43 KLSX 241457
RWRMO

WEATHER SUMMARY FOR MISSOURI
NATIONAL WEATHER SERVICE SPRINGFIELD MO
1000 AM CDT SUN SEP 24 2017

NOTE: "FAIR" INDICATES FEW OR NO CLOUDS BELOW 12,000 FEET WITH NO
       SIGNIFICANT WEATHER AND/OR OBSTRUCTIONS TO VISIBILITY.
       CURRENT SKY AND/OR WEATHER CONDITIONS ARE NOT AVAILABLE FOR
       CHILLICOTHE AND FARMINGTON.

MOZ001>031-035>038-043-044-053-054-241600-
...NORTHERN AND WESTERN MISSOURI...

CITY           SKY/WX    TMP DP  RH WIND       PRES   REMARKS
KANSAS CTY INT MOSUNNY   79  68  69 S12       29.98S
LEE`S SUMMIT   SUNNY     79  68  69 S9        30.00R
ST JOSEPH      SUNNY     80  68  66 S9        29.97S
CHILLICOTHE      N/A     79  69  71 SE6       30.01S

$$
MOZ066>068-077>081-088>096-101>105-241600-
...SOUTHWEST MISSOURI...

CITY           SKY/WX    TMP DP  RH WIND       PRES   REMARKS
SPRINGFIELD    SUNNY     80  68  66 SE10      30.03R
JOPLIN         SUNNY     81  70  69 S9        30.00S
BRANSON        SUNNY     81  66  61 SE7       30.05R

$$
MOZ032>034-039>042-045>050-055>058-069>072-241600-
...CENTRAL MISSOURI...

CITY           SKY/WX    TMP DP  RH WIND       PRES   REMARKS
COLUMBIA       NOT AVBL
JEFFERSON CITY SUNNY     78  67  68 SE5       30.03S
ROLLA          SUNNY     82  68  62 S5        30.07S
SEDALIA        SUNNY     81  70  69 SE10      30.03S
WARRENSBURG    SUNNY     79  66  65 SE7       30.01R

$$
MOZ051-052-059>065-241600-
...EAST CENTRAL MISSOURI...

CITY           SKY/WX    TMP DP  RH WIND       PRES   REMARKS
ST LOUIS INTL  SUNNY     81  68  64 S6        30.07S

$$
MOZ072>076-082>087-097>100-106>115-241600-
...SOUTH CENTRAL AND SOUTHEAST MISSOURI...

CITY           SKY/WX    TMP DP  RH WIND       PRES   REMARKS
CAPE GIRARDEAU SUNNY     82  69  64 VRB3      30.04S
POPLAR BLUFF   SUNNY     79  71  76 CALM      30.04S
WEST PLAINS    SUNNY     80  67  64 SE3       30.08R

$$



USA.gov is the U.S. government's official web portal to all federal, state and local government web resources and services.